• Join FlightAware (Why Join?)
  • Login
  • US Flag 
08:36PM EDT


 

Airport Tracker/Info


-or-


 

Live Flight TrackerFlight Track Log ✈ SWA3924 ✈ 07-May-2013 ✈ KOAK - KPDX

Flight Track Log - Related Links

Times and Time Zones

All times are in EDT time to prevent confusion due to time zone crossing. See the SWA3924 flight status page for this flight to view local times or setup timezone preferences in your user account.

Time Position Orientation Groundspeed Altitude Reporting Facility
EDT Latitude Longitude Course Direction KTS MPH feet Rate Location/Type
10:52PM 37.7167 -122.2333 310° West 152 175 1,000  Level Northern Cal TRACON
10:54PM 37.7589 -122.2972 310° West 192 221 3,500 2,220 Climbing Oakland Center
10:55PM 37.8017 -122.3600 311° West 225 259 6,000 3,120 Climbing Oakland Center
10:56PM 37.8628 -122.4086 328° Northwest 271 312 9,900 3,420 Climbing Oakland Center
10:57PM 37.9469 -122.3967 North 302 348 13,000 3,660 Climbing Oakland Center
10:58PM 38.0575 -122.3856 North 334 384 17,400 3,540 Climbing Oakland Center
10:59PM 38.1561 -122.3747 North 356 410 20,300 2,820 Climbing Oakland Center
11:00PM 38.2594 -122.3775 359° North 372 428 23,200 2,580 Climbing Oakland Center
11:01PM 38.3681 -122.3847 357° North 390 449 25,700 2,340 Climbing Oakland Center
11:02PM 38.4800 -122.3900 358° North 401 461 28,000 1,980 Climbing Oakland Center
11:03PM 38.5972 -122.3975 357° North 419 482 29,800 1,920 Climbing Oakland Center
11:04PM 38.7272 -122.4061 357° North 432 497 32,000 2,400 Climbing Oakland Center
11:05PM 38.8458 -122.4119 358° North 426 490 34,700 1,860 Climbing Oakland Center
11:06PM 38.9631 -122.4192 357° North 420 483 35,900 1,260 Climbing Oakland Center
11:07PM 39.0839 -122.4272 357° North 430 495 37,300 1,260 Climbing Oakland Center
11:08PM 39.2053 -122.4353 357° North 434 499 38,600 1,080 Climbing Oakland Center
11:09PM 39.3264 -122.4417 358° North 435 501 39,500 660 Climbing Oakland Center
11:10PM 39.4503 -122.4492 357° North 441 507 40,000 240 Climbing Oakland Center
11:11PM 39.5761 -122.4561 358° North 443 510 40,000  Level Oakland Center
11:12PM 39.6986 -122.4642 357° North 441 507 40,000  Level Oakland Center
11:13PM 39.8211 -122.4717 357° North 438 504 40,000  Level Oakland Center
11:14PM 39.9433 -122.4800 357° North 437 503 40,000  Level Oakland Center
11:15PM 40.0658 -122.4886 357° North 436 502 40,000  Level Oakland Center
11:16PM 40.1919 -122.4947 358° North 440 506 40,000  Level Oakland Center
11:17PM 40.3158 -122.5011 358° North 439 505 40,000  Level Oakland Center
11:18PM 40.4386 -122.5094 357° North 437 503 40,000  Level Oakland Center
11:19PM 40.5858 -122.5197 357° North 440 506 40,000  Level Oakland Center
11:20PM 40.7086 -122.5253 358° North 440 506 40,000  Level Oakland Center
11:21PM 40.8314 -122.5328 357° North 440 506 40,000  Level Oakland Center
11:22PM 40.9536 -122.5397 358° North 440 506 40,000  Level Oakland Center
11:23PM 41.0753 -122.5469 357° North 438 504 40,000  Level Oakland Center
11:24PM 41.1981 -122.5572 356° North 441 507 40,000  Level Oakland Center
11:25PM 41.3183 -122.5628 358° North 434 499 40,000  Level Oakland Center
11:26PM 41.3908 -122.5678 357° North 435 501 40,000  Level Seattle Center
11:27PM 41.5019 -122.5758 357° North 433 498 40,000  Level Seattle Center
11:28PM 41.6233 -122.5833 357° North 434 499 40,000  Level Seattle Center
11:29PM 41.7456 -122.5911 357° North 437 503 40,000  Level Seattle Center
11:30PM 41.8675 -122.5989 357° North 438 504 40,000  Level Seattle Center
11:31PM 41.9889 -122.6064 357° North 433 498 40,000  Level Seattle Center
11:32PM 42.1103 -122.6156 357° North 431 496 40,000  Level Seattle Center
11:33PM 42.2308 -122.6222 358° North 430 495 40,000  Level Seattle Center
11:34PM 42.3517 -122.6294 357° North 431 496 40,000  Level Seattle Center
11:35PM 42.4717 -122.6392 357° North 431 496 40,000  Level Seattle Center
11:36PM 42.5931 -122.6464 357° North 435 501 40,000  Level Seattle Center
11:37PM 42.7122 -122.6558 357° North 431 496 40,000  Level Seattle Center
11:38PM 42.8433 -122.6636 358° North 433 498 40,000  Level Seattle Center
11:39PM 42.9631 -122.6714 357° North 432 497 40,000  Level Seattle Center
11:40PM 43.0828 -122.6797 357° North 432 497 40,000  Level Seattle Center
11:41PM 43.2022 -122.6878 357° North 432 497 40,000  Level Seattle Center
11:42PM 43.3219 -122.6953 357° North 434 499 40,000  Level Seattle Center
11:43PM 43.4411 -122.7028 357° North 433 498 40,000 -240 Level Seattle Center
11:44PM 43.5592 -122.7119 357° North 429 494 39,600 -1,680 Descending Seattle Center
11:45PM 43.6994 -122.7197 358° North 421 484 36,700 -2,760 Descending Seattle Center
11:46PM 43.8158 -122.7281 357° North 423 487 34,100 -2,340 Descending Seattle Center
11:47PM 43.9344 -122.7361 357° North 429 494 32,000 -2,160 Descending Seattle Center
11:48PM 44.0489 -122.7450 357° North 418 481 29,800 -2,100 Descending Seattle Center
11:49PM 44.1594 -122.7517 358° North 406 467 27,800 -2,040 Descending Seattle Center
11:50PM 44.2653 -122.7403 North 386 444 25,700 -2,100 Descending Seattle Center
11:51PM 44.3714 -122.7303 North 386 444 23,600 -2,040 Descending Seattle Center
11:52PM 44.4739 -122.7208 North 379 436 21,700 -1,920 Descending Seattle Center
11:53PM 44.5717 -122.7108 North 363 418 19,800 -2,100 Descending Seattle Center
11:54PM 44.6317 -122.7025 North 347 399 18,600 -1,920 Descending Seattle Center
11:54PM 44.6667 -122.7022 360° North 351 404 17,900 -1,680 Descending Seattle Center
11:55PM 44.7578 -122.6919 North 339 390 16,100 -2,040 Descending Seattle Center
11:55PM 44.7950 -122.6856 North 329 379 15,300 -1,920 Descending Seattle Center
11:56PM 44.8486 -122.6833 North 332 382 14,200 -1,920 Descending Seattle Center
11:56PM 44.8908 -122.6775 North 323 372 13,400 -1,680 Descending Seattle Center
11:57PM 44.9353 -122.6731 North 325 374 12,500 -1,680 Descending Seattle Center
11:57PM 44.9761 -122.6494 22° Northeast 311 358 11,700 -1,980 Descending Seattle Center
11:58PM 45.0306 -122.6231 19° North 309 356 10,500 -1,500 Descending Seattle Center
11:58PM 45.0544 -122.6086 23° Northeast 302 348 10,200 -900 Descending Seattle Center
11:59PM 45.1072 -122.5853 17° North 298 343 9,600 -1,020 Descending Seattle Center
11:59PM 45.1294 -122.5719 23° Northeast 272 313 9,200 -1,380 Descending Seattle Center
12:00AM 45.1750 -122.5503 19° North 270 311 8,200 -1,380 Descending Seattle Center
12:01AM 45.2450 -122.5164 19° North 267 307 6,900 -1,320 Descending Seattle Center
12:02AM 45.3108 -122.4822 20° North 258 297 5,600 -1,440 Descending Seattle Center
12:03AM 45.3769 -122.4522 18° North 252 290 4,100 -1,440 Descending Seattle Center
12:04AM 45.4442 -122.4158 21° North 256 295 2,700 -900 Descending Seattle Center
12:05AM 45.5058 -122.4061 North 242 278 2,400 -540 Descending Seattle Center
12:06AM 45.5425 -122.4575 316° Northwest 196 226 1,700 -720 Descending Seattle Center
12:07AM 45.5608 -122.5078 298° West 172 198 1,000 -660 Descending Seattle Center
12:08AM 45.5794 -122.5567 299° West 153 176 400 -600 Descending Seattle Center
12:10AM 45.5833 -122.5833 337° Northwest  Level FlightAware Approximate